Greenville, AL

9:12 AM CDT on September 20, 2017 (GMT -0500)
Greenville Municipal

Weather History for KPRN - February, 2011

Change the Weather History Date:

Friday, February 11, 2011

  Actual Average Record
Temperature  
Mean Temperature 37 °F -  
Max Temperature 48 °F 60 °F 79 °F (1984)
Min Temperature 26 °F 33 °F 12 °F (1971)
Degree Days  
Heating Degree Days 28    
Moisture  
Dew Point 19 °F    
Average Humidity 58    
Maximum Humidity 89    
Minimum Humidity 26    
Precipitation  
Precipitation 0.00 in - - ()
Sea Level Pressure  
Sea Level Pressure 30.25 in    
Wind  
Wind Speed 6 mph (WNW)    
Max Wind Speed 10 mph    
Max Gust Speed 16 mph    
Visibility 10 miles    
Events      
Averages and records for this station are not official NWS values.
T = Trace of Precipitation, MM = Missing Value Source: NWS Daily Summary

Daily Weather History Graph

Daily Weather History Graph

Search for Another Location

Airport or City:

Trip Planner

Search our weather history database for the weather conditions in past years. The results will help you decide how hot, cold, wet, or windy it might be!

Date:

Astronomy

Feb. 11, 2011 Rise Set
Actual Time 6:32 AM CST 5:29 PM CST
Civil Twilight 6:07 AM CST 5:54 PM CST
Nautical Twilight 5:38 AM CST 6:23 PM CST
Astronomical Twilight 5:09 AM CST 6:51 PM CST
Moon 10:59 AM CST (2/11) 12:32 AM CST (2/11)
Length of Visible Light 11h 47m
Length of Day
10h 57m
First Quarter, 54% of the Moon is Illuminated
Feb 11
First Quarter
Feb 18
Full
Feb 24
Last Quarter
Mar 4
New
Mar 12
First Quarter

Hourly Weather History & Observations

Time (CST) Temp. Windchill Dew Point Humidity Pressure Visibility Wind Dir Wind Speed Gust Speed Precip Events Conditions
12:56 AM 27.0 °F 20.5 °F 24.1 °F 89% 30.20 in 10.0 mi WNW 5.8 mph - N/A   Mostly Cloudy
1:06 AM 27.0 °F 19.5 °F 24.1 °F 89% 30.19 in 10.0 mi WNW 6.9 mph - N/A   Mostly Cloudy
1:56 AM 28.0 °F 21.7 °F 24.1 °F 85% 30.20 in 10.0 mi WNW 5.8 mph - N/A   Overcast
2:14 AM 28.0 °F 20.8 °F 24.1 °F 85% 30.19 in 10.0 mi NW 6.9 mph - N/A   Mostly Cloudy
2:56 AM 28.0 °F 22.8 °F 24.1 °F 85% 30.20 in 10.0 mi WNW 4.6 mph - N/A   Overcast
3:56 AM 28.0 °F 21.7 °F 23.0 °F 81% 30.21 in 10.0 mi WNW 5.8 mph - N/A   Overcast
4:56 AM 28.0 °F 22.8 °F 23.0 °F 81% 30.21 in 10.0 mi NW 4.6 mph - N/A   Overcast
5:56 AM 27.0 °F 21.6 °F 23.0 °F 85% 30.23 in 10.0 mi WNW 4.6 mph - N/A   Mostly Cloudy
6:14 AM 26.1 °F 21.9 °F 23.0 °F 88% 30.22 in 10.0 mi WNW 3.5 mph - N/A   Scattered Clouds
6:56 AM 26.1 °F - 23.0 °F 88% 30.24 in 10.0 mi Calm Calm - N/A   Unknown
7:56 AM 28.9 °F 25.2 °F 23.0 °F 78% 30.26 in 10.0 mi WNW 3.5 mph - N/A   Clear
8:56 AM 33.1 °F 30.0 °F 23.0 °F 66% 30.28 in 10.0 mi NW 3.5 mph - N/A   Clear
9:56 AM 39.0 °F 32.8 °F 23.0 °F 53% 30.29 in 10.0 mi NNW 9.2 mph - N/A   Clear
10:56 AM 41.0 °F 35.2 °F 21.9 °F 47% 30.28 in 10.0 mi NW 9.2 mph - N/A   Clear
11:56 AM 45.0 °F 40.1 °F 21.0 °F 39% 30.26 in 10.0 mi West 9.2 mph - N/A   Clear
12:56 PM 45.0 °F 40.1 °F 15.1 °F 30% 30.24 in 10.0 mi NW 9.2 mph - N/A   Clear
1:56 PM 48.0 °F - 17.1 °F 29% 30.22 in 10.0 mi NW 8.1 mph - N/A   Clear
2:56 PM 48.0 °F - 14.0 °F 26% 30.22 in 10.0 mi WNW 5.8 mph 16.1 mph N/A   Clear
3:56 PM 46.9 °F - 15.1 °F 28% 30.22 in 10.0 mi WNW 10.4 mph - N/A   Clear
4:56 PM 45.0 °F 40.1 °F 16.0 °F 31% 30.24 in 10.0 mi NW 9.2 mph - N/A   Clear
5:56 PM 41.0 °F 39.0 °F 14.0 °F 33% 30.26 in 10.0 mi NW 3.5 mph - N/A   Clear
6:56 PM 37.9 °F 34.4 °F 14.0 °F 38% 30.28 in 10.0 mi WNW 4.6 mph - N/A   Clear
7:56 PM 37.0 °F 33.3 °F 12.0 °F 36% 30.30 in 10.0 mi NW 4.6 mph - N/A   Clear
8:56 PM 36.0 °F 30.3 °F 12.0 °F 37% 30.30 in 10.0 mi NW 6.9 mph - N/A   Clear
9:56 PM 35.1 °F 31.0 °F 14.0 °F 42% 30.32 in 10.0 mi NW 4.6 mph - N/A   Clear
10:56 PM 34.0 °F 29.8 °F 15.1 °F 46% 30.33 in 10.0 mi NW 4.6 mph - N/A   Clear
11:56 PM 33.1 °F 30.0 °F 16.0 °F 50% 30.33 in 10.0 mi WNW 3.5 mph - N/A   Clear